Other Public Products
Issued by NWS Grand Forks, ND

Home | Current Version | Previous Version | Graphics & Text | Print | Product List | Glossary On
Versions: 1 2 3 4 5 6 7 8 9 10 11 12 13 14 15 16 17 18 19 20 21 22 23 24 25 26 27 28 29 30 31 32 33 34 35 36 37 38 39 40 41 42 43 44 45 46 47 48 49 50
000
FPUS83 KFGF 202210
OPUFGF
PRAIRIE TO PINES WEATHER ROUNDUP
NATIONAL WEATHER SERVICE EASTERN NORTH DAKOTA/GRAND FORKS ND
400 PM CST TUE FEB 20 2018

 **SATELLITE DATA USED TO AUGMENT SKY COVER AT AUTOMATED STATIONS**
 *****  WEATHER ACROSS EASTERN NORTH DAKOTA  *****

CITY           SKY/WX    TMP DP  RH WIND       PRES   REMARKS
GRAND FORKS    FAIR      12   1  61 W16       30.13R WCI  -5
GRND FORKS AFB FAIR      11  -1  57 NW9       30.12R WCI  -2
GRND FORKS NWS   N/A     11   3  70 W16       30.10R WCI  -6
BUXTON           N/A     10   8  90 W14         N/A  WCI  -5
DEVILS LAKE    FAIR       7   0  73 W15       30.09R WCI -10
FARGO          FAIR      12   3  67 W15       30.17R WCI  -4
WAHPETON ARPT  FAIR      12   3  67 NW16      30.17R WCI  -4
$$

 *****  WEATHER ACROSS CENTRAL AND WESTERN NORTH DAKOTA  *****

CITY           SKY/WX    TMP DP  RH WIND       PRES   REMARKS
JAMESTOWN      FAIR      11   0  61 W15       30.12R WCI  -5
BISMARCK       FAIR      12  -1  56 W17       30.16R WCI  -5
MINOT          FAIR      10   0  63 W18G25    30.07S WCI  -8
MINOT AFB      FAIR      10   0  64 W18       30.06R WCI  -9
GARRISON         N/A      8  -2  63 W16       30.10R WCI -10
WILLISTON      FAIR       5  -4  66 W12G22    30.12R WCI -11
DICKINSON      FAIR       5  -3  69 W23       30.06R WCI -17
HETTINGER      FAIR       2  -5  72 W18       30.12R WCI -19
$$

 *****  OTHER OBSERVATIONS NORTHEAST NORTH DAKOTA  *****

CITY           SKY/WX    TMP DP  RH WIND       PRES   REMARKS
WALHALLA       FAIR      12   0  57 W9G15     30.08R WCI   0
LANGDON        FAIR      10   1  67 W15       30.03R WCI  -6
CAVALIER         N/A     10   0  61 W13       30.09R WCI  -5
GRAFTON        FAIR      10   0  61 W13       30.14R WCI  -5
CANDO          MOCLDY    10   1  67 W16       30.08S WCI  -7
FORT TOTTEN      N/A     11  -1  57 W8        29.95S WCI  -1
ROLLA          FAIR       9  -4  56 W16       30.02R WCI  -9
RUGBY          FAIR       9   1  72 W16       30.07R WCI  -9
 ***** THE ABOVE OBSERVATIONS ARE NON NWS ARE NOT QUALITY
        CONTROLLED AND MAY MIS-REPORT RAIN FOR SNOW...
$$

 *****  OTHER OBSERVATIONS SOUTHEAST NORTH DAKOTA *****

CITY           SKY/WX    TMP DP  RH WIND       PRES   REMARKS
COOPERSTOWN    FAIR       9   1  72 W17       30.11R WCI -10
VALLEY CITY    FAIR       9   0  66 W16       30.15R WCI  -9
OAKES            N/A     10   0  61 NW13      30.17R WCI  -5
GWINNER          N/A     12   1  62 W14       30.17R WCI  -3
SHEYENNE NWR     N/A     12   2  65 NW13      29.95S WCI  -3
BUFFALO          N/A     -3   0 100 NE16        N/A  WCI -24
WYNDMERE       NOT AVBL
 ***** THE ABOVE OBSERVATIONS ARE NON NWS ARE NOT QUALITY
       CONTROLLED AND MAY MIS-REPORT RAIN FOR SNOW...
$$

  *****  WEATHER ACROSS NORTHERN MINNESOTA  *****

CITY           SKY/WX    TMP DP  RH WIND       PRES   REMARKS
FLAG ISLAND    PTSUNNY   10   3  72 NW9       30.00R WCI  -2
WARROAD        FAIR      12   3  67 W9        30.03R WCI   0
ROSEAU         FAIR       9   1  72 W12       30.05R WCI  -6
HALLOCK        FAIR      10   1  67 NW7       30.10R WCI   0
THF RVR FALLS  FLURRIES   8   1  73 W14       30.10R WCI  -8
HALSTAD        NOT AVBL
FOSSTON        FAIR      10   0  61 W12       30.09R WCI  -4
BAUDETTE       PTSUNNY    9   2  73 W10       29.99R WCI  -5
WASKISH        PTSUNNY   12   7  79 W10       30.01R WCI  -1
CROOKSTON      PTSUNNY   10   5  79 NW12      30.14R HAZE    WCI  -4
$$
  *****  WEATHER ACROSS CENTRAL AND WEST MINNESOTA  *****

CITY           SKY/WX    TMP DP  RH WIND       PRES   REMARKS
BEMIDJI        FAIR       9   2  72 W9        30.02R HAZE    WCI  -4
PARK RAPIDS    FAIR      10   2  69 W15       30.03R HAZE    WCI  -7
WADENA         LGT SNOW   9   1  72 W15       30.07R WCI  -8
DETROIT LAKES  FAIR       9   3  78 NW12      30.10R WCI  -6
MOORHEAD       PTSUNNY   10   3  72 NW14      30.16R WCI  -5
FERGUS FALLS   FAIR       9   3  78 NW17      30.15R WCI -10
ELBOW LAKE     MOCLDY     9   4  78 NW20      30.14R HAZE    WCI -10
MORRIS MN      CLOUDY    10   3  72 NW17G26   30.15R HAZE    WCI  -7
STAPLES        FAIR      12   1  62 W16       30.05R WCI  -4
WHEATON        FAIR      12   1  62 NW18      30.19R WCI  -5
$$
  *****  WEATHER ELSEWHERE ACROSS MINNESOTA  *****

CITY           SKY/WX    TMP DP  RH WIND       PRES   REMARKS
DULUTH         CLOUDY    17   8  67 W16       29.92R WCI   2
INTRNTL FALLS  CLOUDY    11   3  70 W12       29.97R WCI  -3
ELY            FLURRIES   9   3  78 W12       29.92R WCI  -6
CLOQUET        CLOUDY    18   9  68 W9G17     29.94R WCI   6
BRAINERD       CLOUDY    18   5  57 W14       30.03R WCI   4
HIBBING        CLOUDY    11   4  73 NW13      29.95R WCI  -4
ALEXANDRIA     FAIR      11   2  67 NW17G24   30.08R WCI  -6
SAINT CLOUD    FAIR      17   7  64 NW17      30.07R WCI   1
MINNEAPOLIS    FAIR      20  11  68 W15       30.06R WCI   6
$$

  *****  WEATHER ACROSS SOUTH DAKOTA  *****

CITY           SKY/WX    TMP DP  RH WIND       PRES   REMARKS
SIOUX FALLS    FAIR      11   3  70 NW18      30.20R WCI  -7
BROOKINGS      FAIR      10   1  67 NW18      30.17R WCI  -8
WATERTOWN      PTSUNNY   10   3  73 NW16      30.15R WCI  -7
HURON          FAIR      12   2  64 NW18      30.24R WCI  -6
SISSETON         N/A     13   4  67 NW17      30.17R WCI  -4
ABERDEEN       FAIR      12   1  61 NW16      30.21R WCI  -5
MITCHELL       FAIR      12   3  67 NW16      30.27R WCI  -5
PIERRE         FAIR       9   1  70 W15       30.23R WCI  -8
MOBRIDGE       FAIR      12  -1  56 NW12      30.17R WCI  -2
RAPID CITY     FAIR       1  -5  75 S12       30.13R WCI -16
$$

  *****  SOME WEATHER IN NEARBY STATES *****

CITY           SKY/WX    TMP DP  RH WIND       PRES   REMARKS
GLASGOW MT     FAIR      -2 -10  69 W8        30.12S WCI -17
GREAT FALLS MT FAIR       6  -4  63 SW9       30.04S WCI  -8
CHEYENNE WY    FAIR      18   9  68 NE6       29.90R WCI  10
SCOTTSBLUFF NE FAIR      13  -1  54 NW8       30.09R WCI   2
OMAHA NE       PTSUNNY   19  11  70 NW17      30.23R WCI   4
DES MOINES IA  FLURRIES  22  16  78 NW16      30.15R WCI   8
DAVENPORT IA   CLOUDY    33  27  78 W16       30.05R WCI  23
CHICAGO IL     LGT RAIN  53  50  89 SW8       29.90R
EAU CLAIRE WI  CLOUDY    22  16  78 W12       29.99R WCI  10
LA CROSSE WI   CLOUDY    27  21  78 W13       30.02R WCI  16
$$

  *****  SOME NATIONAL WEATHER *****

CITY           SKY/WX    TMP DP  RH WIND       PRES   REMARKS
LA GUARDIA NY  MOCLDY    69  53  56 VRB3      30.28R
RALEIGH NC     FAIR      72  63  73 W5        30.39F
ATLANTA GA     PTSUNNY   74  62  66 SE9       30.31S
NEW ORLEANS LA FAIR      82  69  64 S15G23    30.12S
OKLAHOMA CITY  CLOUDY    27  25  92 N21       30.06R WCI  13
ALBUQUERQUE NM PTSUNNY   39  16  39 W5        29.96S
SALT LAKE CITY PTSUNNY   25   9  50 N8        30.10S WCI  16
LOS ANGELES CA FAIR      58  16  19 W12       30.11F
BOISE ID       FAIR      25   0  33 CALM      30.15F
SEATTLE WA     CLOUDY    35  24  64 N3        30.16F
$$

*** WEATHER ACROSS MANITOBA...SASKATCHEWAN AND ONTARIO ***
                ***ONTARIO***

CITY           SKY/WX    TMP DP  RH WIND       PRES   REMARKS
GERALDTON      NOT AVBL
THUNDER BAY    NOT AVBL
SIOUX LOOKOUT  NOT AVBL
TORONTO        NOT AVBL
BIG TROUT LK   NOT AVBL
PICKLE LAKE    NOT AVBL
DRYDEN         NOT AVBL
KENORA         NOT AVBL
$$
                *** MANITOBA***

CITY           SKY/WX    TMP DP  RH WIND       PRES   REMARKS
BRANDON        NOT AVBL
DAUPHIN        NOT AVBL
ISLAND LAKE    NOT AVBL
PILOT MOUND    NOT AVBL
THE PAS        NOT AVBL
THOMPSON       NOT AVBL
WINNIPEG       NOT AVBL
$$
                ***SASKATCHEWAN***

CITY           SKY/WX    TMP DP  RH WIND       PRES   REMARKS
ESTEVAN        NOT AVBL
KINDERSLEY     NOT AVBL
LLOYDMINSTER   NOT AVBL
PRINCE ALBERT  NOT AVBL
REGINA         NOT AVBL
YORKTON        NOT AVBL
N. BATTLEFORD  NOT AVBL
LA RONGE       NOT AVBL
SASKATOON      NOT AVBL



USA.gov is the U.S. government's official web portal to all federal, state and local government web resources and services.